Regional Weather Roundup
Issued by NWS Cleveland, OH

Home | Current Version | Previous Version | Text Only | Print | Product List | Glossary On
Versions: 1 2 3 4 5 6 7 8 9 10 11 12 13 14 15 16 17 18 19 20 21 22 23 24 25 26 27 28 29 30 31 32 33 34 35 36 37 38 39 40 41 42 43 44 45 46 47 48 49 50
000
ASUS41 KCLE 281812
RWRCLE
OHIO REGIONAL WEATHER ROUNDUP
NATIONAL WEATHER SERVICE WILMINGTON, OH
200 PM EDT FRI APR 28 2017

NOTE: "FAIR" INDICATES FEW OR NO CLOUDS BELOW 12,000 FEET WITH NO
SIGNIFICANT WEATHER AND/OR OBSTRUCTIONS TO VISIBILITY.

OHZ001>008-015>018-024>027-034-035-043-044-281900-
   NORTHWEST OHIO

CITY           SKY/WX    TMP DP  RH WIND       PRES   REMARKS
DEFIANCE       FAIR      57  41  55 S12       30.01S
FINDLAY        FAIR      59  45  59 S12       30.00F
TOLEDO EXPRESS FAIR      59  40  49 S10G20    30.00F
TOLEDO EXEC    FAIR      60  42  51 S14       30.01S
LIMA           LGT RAIN  57  48  72 S8        30.02S
$$

OHZ009>014-019>023-028>033-038-089-281900-
   NORTHEAST OHIO

CITY           SKY/WX    TMP DP  RH WIND       PRES   REMARKS
CLE-HOPKINS    CLOUDY    63  44  50 S9        30.04S
CLE-LAKEFRONT  FAIR      55  44  66 NW3       30.02R
CUY CO. ARPT   PTSUNNY   64  45  48 SW10      30.03R
LORAIN-ELYRIA  FAIR      60  42  51 S13       30.02S
ASHTABULA      FAIR      64  43  46 S10       30.03F
AKRON-CANTON   PTSUNNY   63  44  50 SW10      30.04R
WOOSTER        FAIR      61  46  57 S5        30.05R
MANSFIELD      FAIR      60  46  59 S9        30.04S
YOUNGSTOWN     CLOUDY    64  46  52 S12       30.03F
$$

OHZ042-051>053-060>062-070>072-077>081-281900-
  SOUTHWEST OHIO

CITY           SKY/WX    TMP DP  RH WIND       PRES   REMARKS
CINC-COVINGTON PTSUNNY   67  53  61 SE8       29.98F
CINC-LUNKEN    FAIR      68  56  65 S3        29.99F
HAMILTON       FAIR      64  51  62 CALM      30.00F
DAYTON         CLOUDY    59  47  64 SE3       30.02S
WRIGHT-PAT AFB PTSUNNY   62  50  63 SE3       30.01S
DAYTON GENERAL FAIR      62  49  62 CALM      30.00F
WILMINGTON     FAIR      65  52  62 SE3       30.00F
$$

OHZ036-037-039>041-045>050-054>059-063>069-073>076-082>088-281900-
  CENTRAL AND SOUTHEAST OHIO

CITY           SKY/WX    TMP DP  RH WIND       PRES   REMARKS
COLUMBUS       CLOUDY    66  47  50 CALM      30.02R
OSU AIRPORT    FAIR      63  48  58 S8        30.01S
BOLTON FIELD   SUNNY     63  48  59 SE5       30.02F
RICKENBACK AFB FAIR      65  46  49 CALM      30.01S
NEWARK         FAIR      67  45  45 SW6       30.02S
MARION         CLOUDY    59  46  62 S9        30.02F
LANCASTER      FAIR      71  50  47 CALM      30.02S
ZANESVILLE     FAIR      70  48  45 SE6       30.02F
NEW PHILLY     FAIR      68  44  42 SE9       30.03F
$$




USA.gov is the U.S. government's official web portal to all federal, state and local government web resources and services.